Time,TemperatureF,DewpointF,PressureIn,WindDirection,WindDirectionDegrees,WindSpeedMPH,WindSpeedGustMPH,Humidity,HourlyPrecipIn,Conditions,Clouds,dailyrainin,SoftwareType,DateUTC
2013-01-24 00:03:00,41.5,25.2,30.22,North,0,4.9,5.8,52,0.00,CLR,,0.00,WeatherDisplay:10.37,2013-01-24 06:03:00,
2013-01-24 00:14:00,41.0,24.7,30.22,NNE,20,4.0,6.9,52,0.00,CLR,,0.00,WeatherDisplay:10.37,2013-01-24 06:14:00,
2013-01-24 00:20:00,41.0,23.3,30.22,NNE,19,5.8,6.9,49,0.00,CLR,,0.00,WeatherDisplay:10.37,2013-01-24 06:20:00,
2013-01-24 00:25:00,41.0,23.3,30.22,North,4,4.9,8.1,49,0.00,CLR,,0.00,WeatherDisplay:10.37,2013-01-24 06:25:00,
2013-01-24 00:30:00,40.6,22.9,30.22,North,357,5.8,5.8,49,0.00,CLR,,0.00,WeatherDisplay:10.37,2013-01-24 06:30:00,
2013-01-24 00:35:00,40.6,22.9,30.22,North,1,5.4,8.1,49,0.00,CLR,,0.00,WeatherDisplay:10.37,2013-01-24 06:35:00,
2013-01-24 00:40:00,40.5,22.8,30.22,North,11,7.2,8.1,49,0.00,CLR,,0.00,WeatherDisplay:10.37,2013-01-24 06:40:00,
2013-01-24 00:45:00,40.3,22.6,30.22,North,5,5.8,8.1,49,0.00,CLR,,0.00,WeatherDisplay:10.37,2013-01-24 06:45:00,
2013-01-24 00:50:00,40.1,22.4,30.22,North,353,4.5,5.8,49,0.00,CLR,,0.00,WeatherDisplay:10.37,2013-01-24 06:50:00,
2013-01-24 00:55:00,39.7,22.1,30.22,North,353,4.9,8.1,49,0.00,CLR,,0.00,WeatherDisplay:10.37,2013-01-24 06:55:00,
2013-01-24 01:00:00,39.4,21.8,30.22,North,0,6.7,9.2,49,0.00,CLR,,0.00,WeatherDisplay:10.37,2013-01-24 07:00:00,
2013-01-24 01:05:00,39.4,21.8,30.22,NNE,22,6.3,9.2,49,0.00,CLR,,0.00,WeatherDisplay:10.37,2013-01-24 07:05:00,
2013-01-24 01:10:00,39.2,21.6,30.22,North,5,4.9,5.8,49,0.00,CLR,,0.00,WeatherDisplay:10.37,2013-01-24 07:10:00,
2013-01-24 01:15:00,39.0,21.9,30.22,NNE,15,4.5,5.8,50,0.00,CLR,,0.00,WeatherDisplay:10.37,2013-01-24 07:15:00,
2013-01-24 01:20:00,38.7,21.6,30.22,NE,45,4.9,8.1,50,0.00,CLR,,0.00,WeatherDisplay:10.37,2013-01-24 07:20:00,
2013-01-24 01:25:00,38.5,21.4,30.22,NNE,15,3.6,5.8,50,0.00,CLR,,0.00,WeatherDisplay:10.37,2013-01-24 07:25:00,
2013-01-24 01:30:00,38.1,21.1,30.22,NNE,27,4.9,5.8,50,0.00,CLR,,0.00,WeatherDisplay:10.37,2013-01-24 07:30:00,
2013-01-24 01:35:00,37.9,20.9,30.22,NNE,23,4.0,5.8,50,0.00,CLR,,0.00,WeatherDisplay:10.37,2013-01-24 07:35:00,
2013-01-24 01:40:00,37.8,20.8,30.22,NNE,17,0.0,2.3,50,0.00,CLR,,0.00,WeatherDisplay:10.37,2013-01-24 07:40:00,
2013-01-24 01:45:00,37.6,20.6,30.22,NNE,14,5.8,10.4,50,0.00,CLR,,0.00,WeatherDisplay:10.37,2013-01-24 07:45:00,
2013-01-24 01:50:00,37.6,20.6,30.25,NNW,345,3.6,5.8,50,0.00,CLR,,0.00,WeatherDisplay:10.37,2013-01-24 07:50:00,
2013-01-24 01:55:00,37.6,20.6,30.25,NNW,341,3.1,5.8,50,0.00,CLR,,0.00,WeatherDisplay:10.37,2013-01-24 07:55:00,
2013-01-24 02:00:00,37.2,20.3,30.25,North,9,4.5,5.8,50,0.00,CLR,,0.00,WeatherDisplay:10.37,2013-01-24 08:00:00,
2013-01-24 02:05:00,37.0,20.1,30.25,North,3,3.1,3.5,50,0.00,CLR,,0.00,WeatherDisplay:10.37,2013-01-24 08:05:00,
2013-01-24 02:10:00,36.9,19.9,30.25,North,3,3.6,5.8,50,0.00,CLR,,0.00,WeatherDisplay:10.37,2013-01-24 08:10:00,
2013-01-24 02:15:00,36.7,19.8,30.25,North,4,4.5,5.8,50,0.00,CLR,,0.00,WeatherDisplay:10.37,2013-01-24 08:15:00,
2013-01-24 02:20:00,36.5,19.6,30.25,North,357,3.6,4.6,50,0.00,CLR,,0.00,WeatherDisplay:10.37,2013-01-24 08:20:00,
2013-01-24 02:25:00,36.3,19.4,30.25,North,353,4.0,5.8,50,0.00,CLR,,0.00,WeatherDisplay:10.37,2013-01-24 08:25:00,
2013-01-24 02:30:00,36.3,19.4,30.25,North,357,3.6,5.8,50,0.00,CLR,,0.00,WeatherDisplay:10.37,2013-01-24 08:30:00,
2013-01-24 02:35:00,36.0,19.1,30.28,NNE,32,5.4,6.9,50,0.00,CLR,,0.00,WeatherDisplay:10.37,2013-01-24 08:35:00,
2013-01-24 02:40:00,35.8,18.9,30.28,NNE,19,4.0,5.8,50,0.00,CLR,,0.00,WeatherDisplay:10.37,2013-01-24 08:40:00,
2013-01-24 02:45:00,35.6,17.8,30.28,NNE,26,3.1,5.8,48,0.00,CLR,,0.00,WeatherDisplay:10.37,2013-01-24 08:45:00,
2013-01-24 02:50:00,35.4,17.7,30.28,NNE,22,4.0,5.8,48,0.00,CLR,,0.00,WeatherDisplay:10.37,2013-01-24 08:50:00,
2013-01-24 02:55:00,35.4,17.7,30.28,NNE,17,5.8,5.8,48,0.00,CLR,,0.00,WeatherDisplay:10.37,2013-01-24 08:55:00,
2013-01-24 03:00:00,35.4,17.7,30.28,NNE,17,4.9,5.8,48,0.00,CLR,,0.00,WeatherDisplay:10.37,2013-01-24 09:00:00,
2013-01-24 03:05:00,35.4,17.7,30.28,North,11,3.1,3.5,48,0.00,CLR,,0.00,WeatherDisplay:10.37,2013-01-24 09:05:00,
2013-01-24 03:10:00,35.4,17.7,30.28,NNE,21,3.6,4.6,48,0.00,CLR,,0.00,WeatherDisplay:10.37,2013-01-24 09:10:00,
2013-01-24 03:15:00,35.4,17.7,30.28,North,353,3.6,3.6,48,0.00,CLR,,0.00,WeatherDisplay:10.37,2013-01-24 09:15:00,
2013-01-24 03:20:00,35.4,17.7,30.28,NNE,31,3.6,3.6,48,0.00,CLR,,0.00,WeatherDisplay:10.37,2013-01-24 09:20:00,
2013-01-24 03:25:00,35.4,17.7,30.28,North,357,3.6,4.6,48,0.00,CLR,,0.00,WeatherDisplay:10.37,2013-01-24 09:25:00,
2013-01-24 03:30:00,35.6,17.8,30.28,NNE,20,3.6,3.6,48,0.00,CLR,,0.00,WeatherDisplay:10.37,2013-01-24 09:30:00,
2013-01-24 03:35:00,35.6,17.8,30.28,ENE,70,2.7,4.0,48,0.00,CLR,,0.00,WeatherDisplay:10.37,2013-01-24 09:35:00,
2013-01-24 03:40:00,35.6,17.8,30.28,NE,37,3.6,3.6,48,0.00,CLR,,0.00,WeatherDisplay:10.37,2013-01-24 09:40:00,
2013-01-24 03:45:00,35.4,17.7,30.28,NNE,15,4.5,5.8,48,0.00,CLR,,0.00,WeatherDisplay:10.37,2013-01-24 09:45:00,
2013-01-24 03:50:00,35.6,17.8,30.28,North,11,3.1,5.8,48,0.00,CLR,,0.00,WeatherDisplay:10.37,2013-01-24 09:50:00,
2013-01-24 03:55:00,35.6,17.8,30.28,NNE,16,2.7,3.5,48,0.00,CLR,,0.00,WeatherDisplay:10.37,2013-01-24 09:55:00,
2013-01-24 04:00:00,35.4,17.7,30.28,ENE,61,3.1,5.8,48,0.00,CLR,,0.00,WeatherDisplay:10.37,2013-01-24 10:00:00,
2013-01-24 04:05:00,35.4,17.7,30.28,NNE,21,6.7,9.2,48,0.00,CLR,,0.00,WeatherDisplay:10.37,2013-01-24 10:05:00,
2013-01-24 04:10:00,35.4,17.7,30.28,NNE,17,5.4,5.8,48,0.00,CLR,,0.00,WeatherDisplay:10.37,2013-01-24 10:10:00,
2013-01-24 04:15:00,35.4,17.7,30.28,NE,49,4.5,5.8,48,0.00,CLR,,0.00,WeatherDisplay:10.37,2013-01-24 10:15:00,
2013-01-24 04:20:00,35.4,17.7,30.31,NNE,22,4.5,5.8,48,0.00,CLR,,0.00,WeatherDisplay:10.37,2013-01-24 10:20:00,
2013-01-24 04:25:00,35.2,17.5,30.31,NE,43,3.1,5.8,48,0.00,CLR,,0.00,WeatherDisplay:10.37,2013-01-24 10:25:00,
2013-01-24 04:30:00,35.2,17.5,30.31,NNE,16,4.9,5.8,48,0.00,CLR,,0.00,WeatherDisplay:10.37,2013-01-24 10:30:00,
2013-01-24 04:35:00,35.1,17.3,30.31,NE,38,4.9,8.1,48,0.00,CLR,,0.00,WeatherDisplay:10.37,2013-01-24 10:35:00,
2013-01-24 04:40:00,35.1,17.3,30.31,NNE,22,5.8,6.9,48,0.00,CLR,,0.00,WeatherDisplay:10.37,2013-01-24 10:40:00,
2013-01-24 04:45:00,34.9,17.2,30.31,NNE,33,4.5,5.8,48,0.00,CLR,,0.00,WeatherDisplay:10.37,2013-01-24 10:45:00,
2013-01-24 04:50:00,34.9,17.2,30.31,NE,47,4.5,8.1,48,0.00,CLR,,0.00,WeatherDisplay:10.37,2013-01-24 10:50:00,
2013-01-24 04:55:00,34.9,17.2,30.31,NNE,20,3.6,5.8,48,0.00,CLR,,0.00,WeatherDisplay:10.37,2013-01-24 10:55:00,
2013-01-24 05:00:00,34.7,17.0,30.31,NNE,23,4.5,5.8,48,0.00,CLR,,0.00,WeatherDisplay:10.37,2013-01-24 11:00:00,
2013-01-24 05:05:00,34.5,16.8,30.31,North,4,3.6,5.8,48,0.00,CLR,,0.00,WeatherDisplay:10.37,2013-01-24 11:05:00,
2013-01-24 05:10:00,34.5,16.8,30.31,NE,53,4.9,6.3,48,0.00,CLR,,0.00,WeatherDisplay:10.37,2013-01-24 11:10:00,
2013-01-24 05:15:00,34.3,16.7,30.31,North,8,5.8,8.1,48,0.00,CLR,,0.00,WeatherDisplay:10.37,2013-01-24 11:15:00,
2013-01-24 05:20:00,34.3,16.7,30.31,NNE,32,6.7,9.2,48,0.00,CLR,,0.00,WeatherDisplay:10.37,2013-01-24 11:20:00,
2013-01-24 05:25:00,34.2,16.5,30.31,NNE,25,4.9,5.8,48,0.00,CLR,,0.00,WeatherDisplay:10.37,2013-01-24 11:25:00,
2013-01-24 05:30:00,34.0,16.3,30.31,ENE,60,5.4,8.1,48,0.00,CLR,,0.00,WeatherDisplay:10.37,2013-01-24 11:30:00,
2013-01-24 05:35:00,34.0,16.3,30.34,NNE,24,8.0,10.4,48,0.00,CLR,,0.00,WeatherDisplay:10.37,2013-01-24 11:35:00,
2013-01-24 05:40:00,33.8,16.2,30.34,North,353,3.6,3.6,48,0.00,CLR,,0.00,WeatherDisplay:10.37,2013-01-24 11:40:00,
2013-01-24 05:45:00,33.8,16.2,30.34,NE,54,5.4,5.8,48,0.00,CLR,,0.00,WeatherDisplay:10.37,2013-01-24 11:45:00,
2013-01-24 05:50:00,33.6,16.5,30.34,North,0,3.6,3.6,49,0.00,CLR,,0.00,WeatherDisplay:10.37,2013-01-24 11:50:00,
2013-01-24 05:55:00,33.4,16.3,30.34,NNE,33,6.7,9.2,49,0.00,CLR,,0.00,WeatherDisplay:10.37,2013-01-24 11:55:00,
2013-01-24 06:00:00,33.3,16.1,30.34,North,357,6.7,8.1,49,0.00,CLR,,0.00,WeatherDisplay:10.37,2013-01-24 12:00:00,
2013-01-24 06:05:00,33.1,16.0,30.34,NNE,27,4.5,5.8,49,0.00,CLR,,0.00,WeatherDisplay:10.37,2013-01-24 12:05:00,
2013-01-24 06:10:00,32.9,15.8,30.34,NNE,15,6.3,8.1,49,0.00,CLR,,0.00,WeatherDisplay:10.37,2013-01-24 12:10:00,
2013-01-24 06:15:00,32.7,15.6,30.37,NNE,22,5.8,8.1,49,0.00,CLR,,0.00,WeatherDisplay:10.37,2013-01-24 12:15:00,
2013-01-24 06:20:00,32.5,15.5,30.37,North,8,5.4,8.1,49,0.00,CLR,,0.00,WeatherDisplay:10.37,2013-01-24 12:20:00,
2013-01-24 06:25:00,32.4,15.3,30.37,North,357,2.7,4.6,49,0.00,CLR,,0.00,WeatherDisplay:10.37,2013-01-24 12:25:00,
2013-01-24 06:31:00,32.2,15.1,30.37,NE,47,5.8,8.1,49,0.00,CLR,,0.00,WeatherDisplay:10.37,2013-01-24 12:31:00,
2013-01-24 06:36:00,32.0,15.0,30.37,NE,50,5.4,8.1,49,0.00,CLR,,0.00,WeatherDisplay:10.37,2013-01-24 12:36:00,
2013-01-24 06:41:00,31.8,14.8,30.37,NNE,21,5.4,5.8,49,0.00,CLR,,0.00,WeatherDisplay:10.37,2013-01-24 12:41:00,
2013-01-24 06:46:00,31.6,14.6,30.37,ENE,72,4.9,5.8,49,0.00,CLR,,0.00,WeatherDisplay:10.37,2013-01-24 12:46:00,
2013-01-24 06:51:00,31.5,14.5,30.37,North,2,5.4,6.9,49,0.00,CLR,,0.00,WeatherDisplay:10.37,2013-01-24 12:51:00,
2013-01-24 06:56:00,31.3,14.3,30.37,NE,46,4.5,9.2,49,0.00,CLR,,0.00,WeatherDisplay:10.37,2013-01-24 12:56:00,
2013-01-24 07:01:00,31.1,14.1,30.37,ENE,63,3.6,4.6,49,0.00,CLR,,0.00,WeatherDisplay:10.37,2013-01-24 13:01:00,
2013-01-24 07:06:00,31.1,14.1,30.37,North,353,2.7,4.6,49,0.00,CLR,,0.00,WeatherDisplay:10.37,2013-01-24 13:06:00,
2013-01-24 07:11:00,31.1,14.1,30.37,ENE,61,2.2,3.5,49,0.00,CLR,,0.00,WeatherDisplay:10.37,2013-01-24 13:11:00,
2013-01-24 07:16:00,30.9,14.0,30.40,ENE,66,3.1,4.6,49,0.00,CLR,,0.00,WeatherDisplay:10.37,2013-01-24 13:16:00,
2013-01-24 07:21:00,30.9,14.0,30.40,ENE,76,4.0,5.8,49,0.00,CLR,,0.00,WeatherDisplay:10.37,2013-01-24 13:21:00,
2013-01-24 07:26:00,30.7,13.8,30.40,NE,46,4.9,9.2,49,0.00,CLR,,0.00,WeatherDisplay:10.37,2013-01-24 13:26:00,
2013-01-24 07:31:00,30.7,13.8,30.40,East,85,5.4,8.1,49,0.00,CLR,,0.00,WeatherDisplay:10.37,2013-01-24 13:31:00,
2013-01-24 07:36:00,30.6,13.6,30.40,ENE,69,4.9,8.1,49,0.00,CLR,,0.00,WeatherDisplay:10.37,2013-01-24 13:36:00,
2013-01-24 07:41:00,30.4,13.5,30.40,ENE,57,6.7,8.1,49,0.00,CLR,,0.00,WeatherDisplay:10.37,2013-01-24 13:41:00,
2013-01-24 07:46:00,30.2,13.3,30.40,ENE,77,4.9,5.8,49,0.00,CLR,,0.00,WeatherDisplay:10.37,2013-01-24 13:46:00,
2013-01-24 07:51:00,30.2,13.3,30.40,ENE,66,5.4,8.1,49,0.00,CLR,,0.00,WeatherDisplay:10.37,2013-01-24 13:51:00,
2013-01-24 07:56:00,30.2,13.3,30.40,NE,50,4.0,8.1,49,0.00,CLR,,0.00,WeatherDisplay:10.37,2013-01-24 13:56:00,
2013-01-24 08:01:00,30.2,13.3,30.40,NE,46,6.7,6.7,49,0.00,CLR,,0.00,WeatherDisplay:10.37,2013-01-24 14:01:00,
2013-01-24 08:06:00,30.2,13.3,30.40,ENE,76,6.7,9.2,49,0.00,CLR,,0.00,WeatherDisplay:10.37,2013-01-24 14:06:00,
2013-01-24 08:11:00,30.2,13.3,30.40,ENE,76,3.1,10.4,49,0.00,CLR,,0.00,WeatherDisplay:10.37,2013-01-24 14:11:00,
2013-01-24 08:16:00,30.0,13.1,30.40,NNE,32,4.5,5.8,49,0.00,CLR,,0.00,WeatherDisplay:10.37,2013-01-24 14:16:00,
2013-01-24 08:21:00,30.0,13.1,30.40,East,90,4.0,5.8,49,0.00,CLR,,0.00,WeatherDisplay:10.37,2013-01-24 14:21:00,
2013-01-24 08:26:00,29.8,13.0,30.40,NE,53,4.5,5.8,49,0.00,CLR,,0.00,WeatherDisplay:10.37,2013-01-24 14:26:00,
2013-01-24 08:31:00,30.0,13.1,30.43,North,9,5.4,9.2,49,0.00,CLR,,0.00,WeatherDisplay:10.37,2013-01-24 14:31:00,
2013-01-24 08:36:00,30.0,13.1,30.43,ENE,75,4.9,8.1,49,0.00,CLR,,0.00,WeatherDisplay:10.37,2013-01-24 14:36:00,
2013-01-24 08:41:00,30.0,13.1,30.43,NNE,33,4.0,9.2,49,0.00,CLR,,0.00,WeatherDisplay:10.37,2013-01-24 14:41:00,
2013-01-24 08:46:00,30.2,13.3,30.43,East,81,5.8,5.8,49,0.00,CLR,,0.00,WeatherDisplay:10.37,2013-01-24 14:46:00,
2013-01-24 08:51:00,30.4,13.5,30.43,NNE,21,6.7,8.1,49,0.00,CLR,,0.00,WeatherDisplay:10.37,2013-01-24 14:51:00,
2013-01-24 08:56:00,30.7,13.8,30.43,East,86,2.2,3.5,49,0.00,CLR,,0.00,WeatherDisplay:10.37,2013-01-24 14:56:00,
2013-01-24 09:01:00,30.9,14.0,30.43,ESE,113,4.5,5.8,49,0.00,CLR,,0.00,WeatherDisplay:10.37,2013-01-24 15:01:00,
2013-01-24 09:06:00,30.9,14.0,30.43,NE,52,4.5,5.8,49,0.00,CLR,,0.00,WeatherDisplay:10.37,2013-01-24 15:06:00,
2013-01-24 09:11:00,30.7,13.8,30.43,NE,50,7.2,7.2,49,0.00,CLR,,0.00,WeatherDisplay:10.37,2013-01-24 15:11:00,
2013-01-24 09:16:00,30.9,14.0,30.43,East,86,4.9,5.8,49,0.00,CLR,,0.00,WeatherDisplay:10.37,2013-01-24 15:16:00,
2013-01-24 09:21:00,31.1,14.1,30.43,East,84,4.0,5.8,49,0.00,CLR,,0.00,WeatherDisplay:10.37,2013-01-24 15:21:00,
2013-01-24 09:26:00,31.1,14.1,30.43,North,6,4.0,5.4,49,0.00,CLR,,0.00,WeatherDisplay:10.37,2013-01-24 15:26:00,
2013-01-24 09:31:00,31.1,14.1,30.43,NE,49,6.7,8.1,49,0.00,CLR,,0.00,WeatherDisplay:10.37,2013-01-24 15:31:00,
2013-01-24 09:36:00,30.7,13.8,30.43,NE,49,6.3,8.1,49,0.00,CLR,,0.00,WeatherDisplay:10.37,2013-01-24 15:36:00,
2013-01-24 09:41:00,30.6,13.6,30.43,ENE,66,5.4,6.9,49,0.00,CLR,,0.00,WeatherDisplay:10.37,2013-01-24 15:41:00,
2013-01-24 09:46:00,30.7,13.8,30.46,NNE,19,7.6,7.6,49,0.00,CLR,,0.00,WeatherDisplay:10.37,2013-01-24 15:46:00,
2013-01-24 09:51:00,30.9,14.0,30.46,ENE,65,5.4,6.9,49,0.00,CLR,,0.00,WeatherDisplay:10.37,2013-01-24 15:51:00,
2013-01-24 09:56:00,31.3,14.3,30.46,ESE,115,4.0,5.8,49,0.00,CLR,,0.00,WeatherDisplay:10.37,2013-01-24 15:56:00,
2013-01-24 10:01:00,31.5,14.5,30.46,ESE,123,4.9,4.9,49,0.00,CLR,,0.00,WeatherDisplay:10.37,2013-01-24 16:01:00,
2013-01-24 10:06:00,31.5,14.5,30.46,SE,140,4.0,5.8,49,0.00,CLR,,0.00,WeatherDisplay:10.37,2013-01-24 16:06:00,
2013-01-24 10:11:00,31.6,14.6,30.46,NE,54,5.4,7.2,49,0.00,CLR,,0.00,WeatherDisplay:10.37,2013-01-24 16:11:00,
2013-01-24 10:16:00,31.5,14.5,30.46,East,99,4.5,5.8,49,0.00,CLR,,0.00,WeatherDisplay:10.37,2013-01-24 16:16:00,
2013-01-24 10:21:00,31.3,14.3,30.46,ESE,112,3.1,3.6,49,0.00,CLR,,0.00,WeatherDisplay:10.37,2013-01-24 16:21:00,
2013-01-24 10:26:00,31.3,14.3,30.46,NNE,30,4.5,5.8,49,0.00,CLR,,0.00,WeatherDisplay:10.37,2013-01-24 16:26:00,
2013-01-24 10:31:00,31.3,14.3,30.46,NE,48,4.9,8.1,49,0.00,CLR,,0.00,WeatherDisplay:10.37,2013-01-24 16:31:00,
2013-01-24 10:36:00,31.1,14.1,30.46,ESE,109,6.3,8.1,49,0.00,CLR,,0.00,WeatherDisplay:10.37,2013-01-24 16:36:00,
2013-01-24 10:41:00,30.7,13.8,30.46,ENE,70,6.3,8.1,49,0.00,CLR,,0.00,WeatherDisplay:10.37,2013-01-24 16:41:00,
2013-01-24 10:46:00,30.6,13.6,30.46,ENE,64,6.3,9.2,49,0.00,CLR,,0.00,WeatherDisplay:10.37,2013-01-24 16:46:00,
2013-01-24 10:51:00,30.4,13.5,30.46,East,90,4.5,5.8,49,0.00,CLR,,0.00,WeatherDisplay:10.37,2013-01-24 16:51:00,
2013-01-24 10:56:00,30.6,13.6,30.46,ENE,59,4.5,5.8,49,0.00,CLR,,0.00,WeatherDisplay:10.37,2013-01-24 16:56:00,
2013-01-24 11:01:00,30.7,13.8,30.46,ESE,115,4.0,5.8,49,0.00,CLR,,0.00,WeatherDisplay:10.37,2013-01-24 17:01:00,
2013-01-24 11:06:00,30.9,14.0,30.46,ESE,114,4.9,5.8,49,0.00,CLR,,0.00,WeatherDisplay:10.37,2013-01-24 17:06:00,
2013-01-24 11:11:00,30.7,13.8,30.46,ENE,61,5.4,5.8,49,0.00,CLR,,0.00,WeatherDisplay:10.37,2013-01-24 17:11:00,
2013-01-24 11:16:00,31.1,14.1,30.43,NE,39,5.4,5.8,49,0.00,CLR,,0.00,WeatherDisplay:10.37,2013-01-24 17:16:00,
2013-01-24 11:21:00,30.7,13.8,30.43,East,90,5.8,5.8,49,0.00,CLR,,0.00,WeatherDisplay:10.37,2013-01-24 17:21:00,
2013-01-24 11:26:00,30.4,13.5,30.43,SSE,149,4.5,8.1,49,0.00,CLR,,0.00,WeatherDisplay:10.37,2013-01-24 17:26:00,
2013-01-24 11:31:00,30.2,13.3,30.43,ENE,76,4.0,5.8,49,0.00,CLR,,0.00,WeatherDisplay:10.37,2013-01-24 17:31:00,
2013-01-24 11:36:00,30.4,13.5,30.43,ENE,78,4.5,5.8,49,0.00,CLR,,0.00,WeatherDisplay:10.37,2013-01-24 17:36:00,
2013-01-24 11:41:00,30.2,13.3,30.43,ENE,73,4.5,8.1,49,0.00,CLR,,0.00,WeatherDisplay:10.37,2013-01-24 17:41:00,
2013-01-24 11:46:00,29.8,13.0,30.43,ESE,109,5.8,8.1,49,0.00,CLR,,0.00,WeatherDisplay:10.37,2013-01-24 17:46:00,
2013-01-24 11:51:00,29.8,13.0,30.43,ENE,60,4.9,5.8,49,0.00,CLR,,0.00,WeatherDisplay:10.37,2013-01-24 17:51:00,
2013-01-24 11:56:00,29.5,12.6,30.43,East,96,6.7,8.1,49,0.00,CLR,,0.00,WeatherDisplay:10.37,2013-01-24 17:56:00,
2013-01-24 12:01:00,29.5,12.6,30.43,ENE,58,6.7,10.4,49,0.00,CLR,,0.00,WeatherDisplay:10.37,2013-01-24 18:01:00,
2013-01-24 12:06:00,29.5,12.6,30.43,NNE,23,6.7,8.1,49,0.00,CLR,,0.00,WeatherDisplay:10.37,2013-01-24 18:06:00,
2013-01-24 12:11:00,29.5,12.6,30.43,NNE,28,8.0,10.4,49,0.00,CLR,,0.00,WeatherDisplay:10.37,2013-01-24 18:11:00,
2013-01-24 12:16:00,29.5,12.6,30.43,NNE,19,5.4,10.4,49,0.00,CLR,,0.00,WeatherDisplay:10.37,2013-01-24 18:16:00,
2013-01-24 12:21:00,29.7,12.8,30.43,ENE,61,7.2,10.4,49,0.00,CLR,,0.00,WeatherDisplay:10.37,2013-01-24 18:21:00,
2013-01-24 12:26:00,30.0,13.1,30.43,ENE,60,5.8,8.1,49,0.00,CLR,,0.00,WeatherDisplay:10.37,2013-01-24 18:26:00,
2013-01-24 12:31:00,30.2,13.3,30.40,East,91,4.5,6.9,49,0.00,CLR,,0.00,WeatherDisplay:10.37,2013-01-24 18:31:00,
2013-01-24 12:36:00,30.2,13.3,30.40,ENE,75,5.8,5.8,49,0.00,CLR,,0.00,WeatherDisplay:10.37,2013-01-24 18:36:00,
2013-01-24 12:41:00,30.7,13.8,30.40,East,84,4.0,5.8,49,0.00,CLR,,0.00,WeatherDisplay:10.37,2013-01-24 18:41:00,
2013-01-24 12:46:00,30.9,14.0,30.40,ENE,75,5.8,5.8,49,0.00,CLR,,0.00,WeatherDisplay:10.37,2013-01-24 18:46:00,
2013-01-24 12:51:00,30.7,13.8,30.40,NNE,27,5.4,5.8,49,0.00,CLR,,0.00,WeatherDisplay:10.37,2013-01-24 18:51:00,
2013-01-24 12:56:00,30.7,13.8,30.40,NE,54,5.4,5.8,49,0.00,CLR,,0.00,WeatherDisplay:10.37,2013-01-24 18:56:00,
2013-01-24 13:01:00,30.9,14.0,30.40,NE,49,4.0,5.8,49,0.00,CLR,,0.00,WeatherDisplay:10.37,2013-01-24 19:01:00,
2013-01-24 13:06:00,31.5,14.5,30.40,SE,124,4.0,5.8,49,0.00,CLR,,0.00,WeatherDisplay:10.37,2013-01-24 19:06:00,
2013-01-24 13:11:00,32.0,15.0,30.40,NE,45,3.1,6.9,49,0.00,CLR,,0.00,WeatherDisplay:10.37,2013-01-24 19:11:00,
2013-01-24 13:16:00,32.0,15.0,30.37,ENE,73,6.3,9.2,49,0.00,CLR,,0.00,WeatherDisplay:10.37,2013-01-24 19:16:00,
2013-01-24 13:21:00,32.0,15.0,30.37,East,94,4.9,5.8,49,0.00,CLR,,0.00,WeatherDisplay:10.37,2013-01-24 19:21:00,
2013-01-24 13:26:00,32.0,15.0,30.37,ENE,61,4.9,8.1,49,0.00,CLR,,0.00,WeatherDisplay:10.37,2013-01-24 19:26:00,
2013-01-24 13:31:00,31.8,14.8,30.37,SE,127,4.5,8.1,49,0.00,CLR,,0.00,WeatherDisplay:10.37,2013-01-24 19:31:00,
2013-01-24 13:36:00,31.8,14.8,30.37,ENE,67,6.3,8.1,49,0.00,CLR,,0.00,WeatherDisplay:10.37,2013-01-24 19:36:00,
2013-01-24 13:41:00,31.5,14.5,30.37,North,5,3.1,5.8,49,0.00,CLR,,0.00,WeatherDisplay:10.37,2013-01-24 19:41:00,
2013-01-24 13:46:00,31.5,14.5,30.37,East,79,5.4,5.8,49,0.00,CLR,,0.00,WeatherDisplay:10.37,2013-01-24 19:46:00,
2013-01-24 13:51:00,31.6,14.6,30.37,ESE,123,4.9,8.1,49,0.00,CLR,,0.00,WeatherDisplay:10.37,2013-01-24 19:51:00,
2013-01-24 13:56:00,31.8,14.8,30.37,ENE,78,4.0,5.8,49,0.00,CLR,,0.00,WeatherDisplay:10.37,2013-01-24 19:56:00,
2013-01-24 14:01:00,31.8,14.8,30.34,ENE,67,4.0,5.8,49,0.00,CLR,,0.00,WeatherDisplay:10.37,2013-01-24 20:01:00,
2013-01-24 14:06:00,31.6,14.6,30.34,ESE,103,3.6,5.8,49,0.00,CLR,,0.00,WeatherDisplay:10.37,2013-01-24 20:06:00,
2013-01-24 14:11:00,31.8,14.8,30.34,East,85,4.9,6.9,49,0.00,CLR,,0.00,WeatherDisplay:10.37,2013-01-24 20:11:00,
2013-01-24 14:16:00,31.8,14.8,30.34,East,94,4.0,5.8,49,0.00,CLR,,0.00,WeatherDisplay:10.37,2013-01-24 20:16:00,
2013-01-24 14:21:00,31.5,14.5,30.34,East,86,6.3,6.3,49,0.00,CLR,,0.00,WeatherDisplay:10.37,2013-01-24 20:21:00,
2013-01-24 14:26:00,31.5,14.5,30.34,ENE,73,4.0,5.8,49,0.00,CLR,,0.00,WeatherDisplay:10.37,2013-01-24 20:26:00,
2013-01-24 14:31:00,31.5,14.5,30.34,East,81,5.8,8.1,49,0.00,CLR,,0.00,WeatherDisplay:10.37,2013-01-24 20:31:00,
2013-01-24 14:36:00,31.3,14.3,30.34,ENE,74,5.8,6.9,49,0.00,CLR,,0.00,WeatherDisplay:10.37,2013-01-24 20:36:00,
2013-01-24 14:41:00,31.1,14.1,30.34,East,99,4.9,5.8,49,0.00,CLR,,0.00,WeatherDisplay:10.37,2013-01-24 20:41:00,
2013-01-24 14:46:00,31.1,14.1,30.34,NE,52,2.2,3.5,49,0.00,CLR,,0.00,WeatherDisplay:10.37,2013-01-24 20:46:00,
2013-01-24 14:51:00,31.1,14.1,30.34,North,8,4.5,5.8,49,0.00,CLR,,0.00,WeatherDisplay:10.37,2013-01-24 20:51:00,
2013-01-24 14:56:00,31.1,14.1,30.34,North,0,4.5,8.1,49,0.00,CLR,,0.00,WeatherDisplay:10.37,2013-01-24 20:56:00,
2013-01-24 15:01:00,31.1,14.1,30.34,East,93,3.1,3.5,49,0.00,CLR,,0.00,WeatherDisplay:10.37,2013-01-24 21:01:00,
2013-01-24 15:06:00,31.1,14.1,30.34,NNE,22,4.9,8.1,49,0.00,CLR,,0.00,WeatherDisplay:10.37,2013-01-24 21:06:00,
2013-01-24 15:11:00,30.9,14.0,30.34,East,87,4.0,5.8,49,0.00,CLR,,0.00,WeatherDisplay:10.37,2013-01-24 21:11:00,
2013-01-24 15:16:00,30.9,14.0,30.31,ESE,115,3.1,3.5,49,0.00,CLR,,0.00,WeatherDisplay:10.37,2013-01-24 21:16:00,
2013-01-24 15:21:00,30.7,13.8,30.31,SE,144,5.8,5.8,49,0.00,CLR,,0.00,WeatherDisplay:10.37,2013-01-24 21:21:00,
2013-01-24 15:26:00,30.7,13.8,30.31,East,100,4.0,8.1,49,0.00,CLR,,0.00,WeatherDisplay:10.37,2013-01-24 21:26:00,
2013-01-24 15:31:00,30.7,13.8,30.31,East,101,4.0,4.0,49,0.00,CLR,,0.00,WeatherDisplay:10.37,2013-01-24 21:31:00,
2013-01-24 15:36:00,30.9,14.0,30.31,East,79,3.1,5.8,49,0.00,CLR,,0.00,WeatherDisplay:10.37,2013-01-24 21:36:00,
2013-01-24 15:41:00,30.7,13.8,30.31,East,93,3.1,4.6,49,0.00,CLR,,0.00,WeatherDisplay:10.37,2013-01-24 21:41:00,
2013-01-24 15:46:00,30.9,14.0,30.31,ESE,122,3.1,5.8,49,0.00,CLR,,0.00,WeatherDisplay:10.37,2013-01-24 21:46:00,
2013-01-24 15:51:00,30.9,14.0,30.31,East,98,4.0,5.8,49,0.00,CLR,,0.00,WeatherDisplay:10.37,2013-01-24 21:51:00,
2013-01-24 15:56:00,30.7,13.8,30.31,ENE,68,4.0,4.6,49,0.00,CLR,,0.00,WeatherDisplay:10.37,2013-01-24 21:56:00,
2013-01-24 16:01:00,30.6,13.6,30.31,ENE,65,4.5,5.8,49,0.00,CLR,,0.00,WeatherDisplay:10.37,2013-01-24 22:01:00,
2013-01-24 16:06:00,30.2,13.3,30.31,ESE,102,4.5,8.1,49,0.00,CLR,,0.00,WeatherDisplay:10.37,2013-01-24 22:06:00,
2013-01-24 16:11:00,30.2,13.3,30.31,East,84,2.7,3.5,49,0.00,CLR,,0.00,WeatherDisplay:10.37,2013-01-24 22:11:00,
2013-01-24 16:16:00,30.0,13.1,30.31,East,100,3.1,5.8,49,0.00,CLR,,0.00,WeatherDisplay:10.37,2013-01-24 22:16:00,
2013-01-24 16:21:00,29.8,13.0,30.31,NE,56,2.7,4.0,49,0.00,CLR,,0.00,WeatherDisplay:10.37,2013-01-24 22:21:00,
2013-01-24 16:26:00,29.7,12.8,30.31,ENE,57,5.8,5.8,49,0.00,CLR,,0.00,WeatherDisplay:10.37,2013-01-24 22:26:00,
2013-01-24 16:31:00,29.7,12.8,30.31,ENE,74,4.5,5.8,49,0.00,CLR,,0.00,WeatherDisplay:10.37,2013-01-24 22:31:00,
2013-01-24 16:36:00,29.5,12.6,30.31,ENE,78,4.5,5.8,49,0.00,CLR,,0.00,WeatherDisplay:10.37,2013-01-24 22:36:00,
2013-01-24 16:41:00,29.5,12.6,30.31,East,100,4.9,4.9,49,0.00,CLR,,0.00,WeatherDisplay:10.37,2013-01-24 22:41:00,
2013-01-24 16:46:00,29.5,12.6,30.31,ENE,60,5.4,5.8,49,0.00,CLR,,0.00,WeatherDisplay:10.37,2013-01-24 22:46:00,
2013-01-24 16:51:00,29.5,12.6,30.31,ESE,113,3.6,5.8,49,0.00,CLR,,0.00,WeatherDisplay:10.37,2013-01-24 22:51:00,
2013-01-24 16:56:00,29.5,12.6,30.31,ENE,78,4.0,5.8,49,0.00,CLR,,0.00,WeatherDisplay:10.37,2013-01-24 22:56:00,
2013-01-24 17:01:00,29.3,12.5,30.31,ESE,103,4.0,5.8,49,0.00,CLR,,0.00,WeatherDisplay:10.37,2013-01-24 23:01:00,
2013-01-24 17:06:00,29.3,12.5,30.31,ENE,77,5.8,8.1,49,0.00,CLR,,0.00,WeatherDisplay:10.37,2013-01-24 23:06:00,
2013-01-24 17:11:00,29.1,12.3,30.31,ESE,113,5.4,8.1,49,0.00,CLR,,0.00,WeatherDisplay:10.37,2013-01-24 23:11:00,
2013-01-24 17:16:00,29.1,12.3,30.31,NE,44,4.5,5.8,49,0.00,CLR,,0.00,WeatherDisplay:10.37,2013-01-24 23:16:00,
2013-01-24 17:21:00,28.9,12.1,30.31,East,92,5.8,5.8,49,0.00,CLR,,0.00,WeatherDisplay:10.37,2013-01-24 23:21:00,
2013-01-24 17:26:00,28.9,12.1,30.31,East,97,3.6,4.6,49,0.00,CLR,,0.00,WeatherDisplay:10.37,2013-01-24 23:26:00,
2013-01-24 17:31:00,28.9,12.1,30.31,ESE,103,4.9,4.9,49,0.00,CLR,,0.00,WeatherDisplay:10.37,2013-01-24 23:31:00,
2013-01-24 17:36:00,29.1,12.3,30.31,ESE,106,3.1,3.5,49,0.00,CLR,,0.00,WeatherDisplay:10.37,2013-01-24 23:36:00,
2013-01-24 17:41:00,29.1,12.3,30.31,ENE,71,3.1,3.5,49,0.00,CLR,,0.00,WeatherDisplay:10.37,2013-01-24 23:41:00,
2013-01-24 17:46:00,29.1,12.3,30.31,ENE,65,2.7,3.5,49,0.00,CLR,,0.00,WeatherDisplay:10.37,2013-01-24 23:46:00,
2013-01-24 17:51:00,29.1,12.3,30.31,East,91,3.6,4.6,49,0.00,CLR,,0.00,WeatherDisplay:10.37,2013-01-24 23:51:00,
2013-01-24 17:56:00,29.3,12.5,30.31,ENE,61,3.6,5.8,49,0.00,CLR,,0.00,WeatherDisplay:10.37,2013-01-24 23:56:00,
2013-01-24 18:01:00,29.3,12.5,30.31,East,89,2.7,5.8,49,0.00,CLR,,0.00,WeatherDisplay:10.37,2013-01-25 00:01:00,
2013-01-24 18:06:00,29.3,12.5,30.31,ENE,60,3.1,3.5,49,0.00,CLR,,0.00,WeatherDisplay:10.37,2013-01-25 00:06:00,
2013-01-24 18:11:00,29.3,12.5,30.31,East,94,2.2,3.5,49,0.00,CLR,,0.00,WeatherDisplay:10.37,2013-01-25 00:11:00,
2013-01-24 18:16:00,29.3,12.5,30.31,East,90,3.6,3.6,49,0.00,CLR,,0.00,WeatherDisplay:10.37,2013-01-25 00:16:00,
2013-01-24 18:21:00,29.3,12.5,30.31,SE,135,3.6,5.8,49,0.00,CLR,,0.00,WeatherDisplay:10.37,2013-01-25 00:21:00,
2013-01-24 18:26:00,29.5,12.6,30.31,ESE,107,4.5,5.8,49,0.00,CLR,,0.00,WeatherDisplay:10.37,2013-01-25 00:26:00,
2013-01-24 18:31:00,29.5,12.6,30.31,ENE,64,0.0,3.5,49,0.00,CLR,,0.00,WeatherDisplay:10.37,2013-01-25 00:31:00,
2013-01-24 18:36:00,29.5,12.6,30.31,East,79,2.2,3.5,49,0.00,CLR,,0.00,WeatherDisplay:10.37,2013-01-25 00:36:00,
2013-01-24 18:41:00,29.5,12.6,30.31,ENE,67,4.9,5.8,49,0.00,CLR,,0.00,WeatherDisplay:10.37,2013-01-25 00:41:00,
2013-01-24 18:46:00,29.5,12.6,30.31,ENE,74,2.7,3.5,49,0.00,CLR,,0.00,WeatherDisplay:10.37,2013-01-25 00:46:00,
2013-01-24 18:51:00,29.5,12.6,30.31,ENE,57,2.7,3.6,49,0.00,CLR,,0.00,WeatherDisplay:10.37,2013-01-25 00:51:00,
2013-01-24 18:56:00,29.7,12.8,30.31,East,82,3.1,4.6,49,0.00,CLR,,0.00,WeatherDisplay:10.37,2013-01-25 00:56:00,
2013-01-24 19:01:00,29.7,12.8,30.28,NNE,21,3.6,3.6,49,0.00,CLR,,0.00,WeatherDisplay:10.37,2013-01-25 01:01:00,
2013-01-24 19:06:00,29.7,12.8,30.28,SE,125,3.6,3.6,49,0.00,CLR,,0.00,WeatherDisplay:10.37,2013-01-25 01:06:00,
2013-01-24 19:11:00,29.8,13.0,30.28,ENE,69,3.6,4.6,49,0.00,CLR,,0.00,WeatherDisplay:10.37,2013-01-25 01:11:00,
2013-01-24 19:16:00,29.8,13.0,30.28,ENE,76,3.6,3.6,49,0.00,CLR,,0.00,WeatherDisplay:10.37,2013-01-25 01:16:00,
2013-01-24 19:21:00,29.8,13.0,30.28,East,89,0.0,3.5,49,0.00,CLR,,0.00,WeatherDisplay:10.37,2013-01-25 01:21:00,
2013-01-24 19:26:00,29.8,13.0,30.28,NE,51,3.1,3.5,49,0.00,CLR,,0.00,WeatherDisplay:10.37,2013-01-25 01:26:00,
2013-01-24 19:31:00,30.0,13.1,30.28,NE,51,3.6,5.8,49,0.00,CLR,,0.00,WeatherDisplay:10.37,2013-01-25 01:31:00,
2013-01-24 19:36:00,30.0,13.1,30.28,East,80,3.1,3.5,49,0.00,CLR,,0.00,WeatherDisplay:10.37,2013-01-25 01:36:00,
2013-01-24 19:41:00,30.0,13.1,30.28,East,89,2.2,3.5,49,0.00,CLR,,0.00,WeatherDisplay:10.37,2013-01-25 01:41:00,
2013-01-24 19:46:00,30.0,13.1,30.28,ESE,112,0.0,3.5,49,0.00,CLR,,0.00,WeatherDisplay:10.37,2013-01-25 01:46:00,
2013-01-24 19:51:00,30.2,13.3,30.28,ENE,73,2.2,3.5,49,0.00,CLR,,0.00,WeatherDisplay:10.37,2013-01-25 01:51:00,
2013-01-24 19:56:00,30.2,13.3,30.28,ENE,60,3.1,3.5,49,0.00,CLR,,0.00,WeatherDisplay:10.37,2013-01-25 01:56:00,
2013-01-24 20:01:00,30.2,13.3,30.28,ENE,69,2.7,3.5,49,0.00,CLR,,0.00,WeatherDisplay:10.37,2013-01-25 02:01:00,
2013-01-24 20:06:00,30.2,13.3,30.28,NE,47,3.1,3.5,49,0.00,CLR,,0.00,WeatherDisplay:10.37,2013-01-25 02:06:00,
2013-01-24 20:11:00,30.2,13.3,30.28,ENE,75,3.6,5.8,49,0.00,CLR,,0.00,WeatherDisplay:10.37,2013-01-25 02:11:00,
2013-01-24 20:16:00,30.2,13.3,30.28,NE,55,2.7,4.0,49,0.00,CLR,,0.00,WeatherDisplay:10.37,2013-01-25 02:16:00,
2013-01-24 20:21:00,30.4,13.5,30.28,ESE,112,3.1,3.5,49,0.00,CLR,,0.00,WeatherDisplay:10.37,2013-01-25 02:21:00,
2013-01-24 20:26:00,30.4,13.5,30.28,East,91,3.1,3.5,49,0.00,CLR,,0.00,WeatherDisplay:10.37,2013-01-25 02:26:00,
2013-01-24 20:31:00,30.4,13.5,30.25,East,84,3.6,3.6,49,0.00,CLR,,0.00,WeatherDisplay:10.37,2013-01-25 02:31:00,
2013-01-24 20:36:00,30.4,13.5,30.25,East,80,3.1,3.5,49,0.00,CLR,,0.00,WeatherDisplay:10.37,2013-01-25 02:36:00,
2013-01-24 20:41:00,30.4,13.5,30.25,ENE,66,3.1,4.6,49,0.00,CLR,,0.00,WeatherDisplay:10.37,2013-01-25 02:41:00,
2013-01-24 20:46:00,30.6,13.6,30.22,East,79,3.1,3.5,49,0.00,CLR,,0.00,WeatherDisplay:10.37,2013-01-25 02:46:00,
2013-01-24 20:51:00,30.6,13.6,30.22,East,81,0.0,0.0,49,0.00,CLR,,0.00,WeatherDisplay:10.37,2013-01-25 02:51:00,
2013-01-24 20:56:00,30.6,13.6,30.22,North,8,3.1,3.5,49,0.00,CLR,,0.00,WeatherDisplay:10.37,2013-01-25 02:56:00,
2013-01-24 21:01:00,30.6,13.6,30.25,NNE,18,3.6,4.9,49,0.00,CLR,,0.00,WeatherDisplay:10.37,2013-01-25 03:01:00,
2013-01-24 21:06:00,30.6,13.6,30.25,ENE,68,0.0,3.5,49,0.00,CLR,,0.00,WeatherDisplay:10.37,2013-01-25 03:06:00,
2013-01-24 21:11:00,30.6,13.6,30.25,NE,36,2.2,2.3,49,0.00,CLR,,0.00,WeatherDisplay:10.37,2013-01-25 03:11:00,
2013-01-24 21:16:00,30.7,13.8,30.25,ENE,58,4.5,5.8,49,0.00,CLR,,0.00,WeatherDisplay:10.37,2013-01-25 03:16:00,
2013-01-24 21:21:00,30.7,13.8,30.25,ENE,78,3.6,4.6,49,0.00,CLR,,0.00,WeatherDisplay:10.37,2013-01-25 03:21:00,
2013-01-24 21:26:00,30.7,13.8,30.25,ENE,58,3.1,3.5,49,0.00,CLR,,0.00,WeatherDisplay:10.37,2013-01-25 03:26:00,
2013-01-24 21:31:00,30.7,13.8,30.25,ENE,63,0.0,0.0,49,0.00,CLR,,0.00,WeatherDisplay:10.37,2013-01-25 03:31:00,
2013-01-24 21:36:00,30.7,13.8,30.25,NE,42,2.7,3.5,49,0.00,CLR,,0.00,WeatherDisplay:10.37,2013-01-25 03:36:00,
2013-01-24 21:41:00,30.7,13.8,30.25,ENE,58,0.0,3.5,49,0.00,CLR,,0.00,WeatherDisplay:10.37,2013-01-25 03:41:00,
2013-01-24 21:46:00,30.7,13.8,30.22,NE,47,2.7,3.6,49,0.00,CLR,,0.00,WeatherDisplay:10.37,2013-01-25 03:46:00,
2013-01-24 21:51:00,30.7,13.8,30.22,East,83,3.1,4.6,49,0.00,CLR,,0.00,WeatherDisplay:10.37,2013-01-25 03:51:00,
2013-01-24 21:56:00,30.7,13.8,30.22,ENE,74,3.1,5.8,49,0.00,CLR,,0.00,WeatherDisplay:10.37,2013-01-25 03:56:00,
2013-01-24 22:01:00,30.7,13.8,30.22,ENE,75,2.2,2.3,49,0.00,CLR,,0.00,WeatherDisplay:10.37,2013-01-25 04:01:00,
2013-01-24 22:06:00,30.7,13.8,30.22,NE,44,3.1,5.8,49,0.00,CLR,,0.00,WeatherDisplay:10.37,2013-01-25 04:06:00,
2013-01-24 22:11:00,30.7,13.8,30.22,ENE,69,0.0,2.3,49,0.00,CLR,,0.00,WeatherDisplay:10.37,2013-01-25 04:11:00,
2013-01-24 22:16:00,30.7,13.8,30.22,ENE,64,3.1,3.5,49,0.00,CLR,,0.00,WeatherDisplay:10.37,2013-01-25 04:16:00,
2013-01-24 22:21:00,30.7,13.8,30.22,ENE,68,0.0,3.5,49,0.00,CLR,,0.00,WeatherDisplay:10.37,2013-01-25 04:21:00,
2013-01-24 22:26:00,30.7,13.8,30.22,ENE,65,2.7,3.5,49,0.00,CLR,,0.00,WeatherDisplay:10.37,2013-01-25 04:26:00,
2013-01-24 22:31:00,30.7,13.8,30.22,NE,52,3.6,3.6,49,0.00,CLR,,0.00,WeatherDisplay:10.37,2013-01-25 04:31:00,
2013-01-24 22:36:00,30.7,13.8,30.22,NNE,30,0.0,0.0,49,0.00,CLR,,0.00,WeatherDisplay:10.37,2013-01-25 04:36:00,
2013-01-24 22:41:00,30.7,13.8,30.22,NE,41,3.1,3.5,49,0.00,CLR,,0.00,WeatherDisplay:10.37,2013-01-25 04:41:00,
2013-01-24 22:46:00,30.7,13.8,30.22,ENE,57,0.0,2.3,49,0.00,CLR,,0.00,WeatherDisplay:10.37,2013-01-25 04:46:00,
2013-01-24 22:51:00,30.7,13.8,30.22,ENE,63,4.0,4.5,49,0.00,CLR,,0.00,WeatherDisplay:10.37,2013-01-25 04:51:00,
2013-01-24 22:56:00,30.7,13.8,30.22,ENE,62,3.1,3.5,49,0.00,CLR,,0.00,WeatherDisplay:10.37,2013-01-25 04:56:00,
2013-01-24 23:01:00,30.9,14.0,30.22,ENE,72,0.0,0.0,49,0.00,CLR,,0.00,WeatherDisplay:10.37,2013-01-25 05:01:00,
2013-01-24 23:03:00,30.9,14.0,30.22,ENE,76,2.2,3.5,49,0.00,CLR,,0.00,WeatherDisplay:10.37,2013-01-25 05:03:00,
2013-01-24 23:08:00,30.9,14.0,30.22,ENE,76,0.0,0.0,49,0.00,CLR,,0.00,WeatherDisplay:10.37,2013-01-25 05:08:00,
2013-01-24 23:13:00,30.9,14.0,30.22,East,101,0.0,2.3,49,0.00,CLR,,0.00,WeatherDisplay:10.37,2013-01-25 05:13:00,
2013-01-24 23:18:00,30.9,14.0,30.19,East,101,0.0,0.0,49,0.00,CLR,,0.00,WeatherDisplay:10.37,2013-01-25 05:18:00,
2013-01-24 23:23:00,30.9,14.0,30.19,East,101,0.0,0.0,49,0.00,CLR,,0.00,WeatherDisplay:10.37,2013-01-25 05:23:00,
2013-01-24 23:28:00,30.9,14.0,30.19,ENE,58,0.0,0.0,49,0.00,CLR,,0.00,WeatherDisplay:10.37,2013-01-25 05:28:00,
2013-01-24 23:33:00,30.9,14.0,30.19,ENE,60,2.7,5.8,49,0.00,CLR,,0.00,WeatherDisplay:10.37,2013-01-25 05:33:00,
2013-01-24 23:38:00,30.9,14.0,30.19,ENE,66,2.7,3.5,49,0.00,CLR,,0.00,WeatherDisplay:10.37,2013-01-25 05:38:00,
2013-01-24 23:43:00,30.9,14.0,30.19,NE,51,2.2,3.5,49,0.00,CLR,,0.00,WeatherDisplay:10.37,2013-01-25 05:43:00,
2013-01-24 23:48:00,30.9,14.0,30.19,ENE,61,0.0,3.5,49,0.00,CLR,,0.00,WeatherDisplay:10.37,2013-01-25 05:48:00,
2013-01-24 23:53:00,31.1,14.1,30.19,ENE,61,0.0,2.3,49,0.00,CLR,,0.00,WeatherDisplay:10.37,2013-01-25 05:53:00,
2013-01-24 23:58:00,31.1,14.1,30.19,ENE,70,0.0,3.5,49,0.00,CLR,,0.00,WeatherDisplay:10.37,2013-01-25 05:58:00,